Forum


Ask a question

No. FLOSS Question Date
Views
Answers
1 DWSIM LINUX MANJARO 2020-10-12 04:38:41.183491 42 1
2 DWSIM RadFrac Model 2020-10-08 09:54:11.205926 47 2
3 DWSIM Extractive Distillation converging 2020-10-06 12:29:32.409991 48 1
4 DWSIM Absorber simulation in version 6.1 2020-10-04 16:59:22.755293 52 1
5 DWSIM Compound/component mapping 2020-09-28 14:28:26.787545 64 3
6 DWSIM few options not available 2020-09-26 09:32:30.079705 64 1
7 DWSIM Formalin simulation 2020-09-24 20:58:03.321565 66 0
8 DWSIM the flash algorithm not appering dwsim 2020-09-24 06:28:40.311898 69 1
9 DWSIM How to add Sucrose compound to the Database? 2020-09-18 16:05:48.152686 83 1
10 DWSIM Editing Appearance of Units 2020-09-17 09:31:38.391069 2 0
11 DWSIM property pacakge 2020-09-16 05:59:58.299010 98 1
12 DWSIM flash algorithm not appering dwsim 2020-09-13 13:52:05.963393 93 1
13 DWSIM Unable to use 32 bit C++ DLL in DWSIM5 source code. 2020-09-09 07:11:00.091876 174 1
14 DWSIM Installation of DWSIM 2020-09-07 07:50:10.069804 120 1
15 DWSIM How to sort component list (Selected compounds)? 2020-09-06 01:27:35.754171 108 3
16 DWSIM WHAT TO USE FOR EVAPORATOR 2020-09-05 17:34:18.694008 181 1
17 DWSIM Object reference not set to an instance of an object? 2020-09-05 09:41:27.570387 69 1
18 DWSIM I have problems changing the compunds in a existing model? 2020-09-02 14:03:22.984586 125 3
19 DWSIM ADDING A COMPOUND 2020-08-31 16:26:54.506769 144 1
20 DWSIM centrifugal pump 2020-08-29 05:54:48.288126 125 1
21 DWSIM heterogeneous catalyst 2020-08-28 03:42:52.065100 133 1
22 DWSIM Parallel reaction in Heterogeneous catalytic reaction 2020-08-25 15:26:48.648522 147 1
23 DWSIM REGARDING INTERNSHIP FORMS. 2020-08-19 17:46:33.219360 153 1
24 DWSIM The tab for binary phase envelope is not visible on reopening the dwxml file. 2020-08-19 08:03:36.322543 128 1
25 DWSIM Solid phase reactions 2020-08-15 21:10:04.899060 2 0
26 DWSIM Biomass pirolisis 2020-08-15 21:08:34.641687 155 2
27 DWSIM Error in adding connections to Cape_Open Objects 2020-08-15 16:21:07.611742 176 2
28 DWSIM Error in Density calculation 2020-08-12 11:50:43.803540 136 1
29 DWSIM Thermodynamic property package selection 2020-07-31 10:07:44.769359 199 1
30 DWSIM Using temperature dependent function of K in Equilibrium Reactor 2020-07-27 15:39:22.651480 173 1
31 DWSIM I have installed and configured GNU Octave but i cant able to model pc shaft 2020-07-25 07:25:50.543967 178 2
32 DWSIM How to model Pc Shaft in Dwsim updated version. 2020-07-24 06:49:46.572296 162 2
33 DWSIM NEW COMPOUND ADD 2020-07-18 05:38:09.003950 202 1
34 DWSIM DWSIM installation Error 2020-07-13 09:42:24.351430 217 1
35 DWSIM simulation inspector 2020-07-09 09:31:46.110072 182 1
36 DWSIM Heterogeneous Catalytic Error tf=t0 2020-07-01 12:04:51.522563 223 1
37 DWSIM Regarding Optimization Tool 2020-06-13 14:05:17.037310 207 2
38 DWSIM 3-phase separator 2020-05-13 21:39:23.441675 343 2
39 DWSIM PVC Component 2020-05-12 03:20:25.884525 245 1
40 DWSIM Error in Equilibrium Reactor 2020-05-04 09:50:58.977275 273 1
41 DWSIM Polymer Component creator 2020-04-27 07:18:37.359744 280 6
42 DWSIM Syntheis/production of ammonium nitrate 2020-03-26 11:25:15.695498 320 2
43 DWSIM Flowsheet proposal form submitted but one of the compounds to be used was left out due to some error.how to correct it ? 2020-02-24 06:28:10.536173 459 1
44 DWSIM Amberlyst and sulfuric acid are not available in the list, how to proceed. 2020-02-18 12:57:36.985693 338 2
45 DWSIM Reaction manager in Mac os 2020-01-18 06:17:01.979261 364 3
46 DWSIM Error while opening "Open Python Script Editor" 2019-12-06 10:59:07.175921 394 1
47 DWSIM Automation of compound separator 2019-12-04 16:45:48.004921 356 1
48 DWSIM Using a custom compound 2019-10-10 13:51:25.781544 475 2
49 DWSIM CAPE-OPEN Unit Operations 2019-09-17 14:27:21.315684 590 6
50 DWSIM How to add a Component Splitter 2019-09-17 14:20:25.989936 535 1
51 DWSIM chemicals and thermodynamic 2019-07-28 18:10:08.125386 490 1
52 DWSIM .ERROR IN POWER CALC OF PUMP 2019-07-09 13:34:58.961977 427 1
53 DWSIM Not responding error 2019-06-29 10:33:49.500974 467 4
54 DWSIM Error while accessing compounds 2019-06-26 17:38:39.404765 458 1
55 DWSIM R.O desalination 2019-05-17 15:32:40.033347 538 1
56 DWSIM Custom modeler 2019-05-17 15:03:35.785255 511 1
57 DWSIM classic extractive distillation with 2 simple columns,  with water, ethanol and benzene 2019-04-28 20:10:56.613384 652 1
58 DWSIM Not able to download the codes for Textbook Companion Project 2019-04-24 04:06:12.674019 526 1
59 DWSIM Reaction manager 2019-03-26 16:30:04.686962 785 1
60 DWSIM equillibrium reactor 2019-03-12 18:01:08.763284 790 2
61 DWSIM Issues related to DWSIM in mac 2019-01-08 15:36:26.443308 690 2
62 DWSIM upload user define compound 2018-12-23 06:48:53.388854 614 1
63 DWSIM DWSIM Wastewater treatment process 2018-12-19 20:43:41.379014 784 1
64 DWSIM Problem with "Valve" 2018-12-05 08:35:47.995121 709 3
65 DWSIM find the enthalpy in python script 2018-12-04 04:49:54.852579 637 1
66 DWSIM Rigourous Distillation column error with image file 2018-11-21 12:52:40.637300 797 1
67 DWSIM error in a kinetic reaction 2018-11-01 11:40:17.000000 735 1
68 DWSIM error in LLE ternary graph utility 2018-10-08 15:22:17.000000 872 2
69 DWSIM doubt regarding reaction furnace and condenser 2018-09-15 14:15:00.000000 700 1
70 DWSIM Error in stichiometry 2018-08-24 09:17:41.000000 737 3
71 DWSIM Simulation of process model for n number of data points or observations 2018-08-24 08:51:16.000000 661 1
72 DWSIM Development of graphical user interface in Excel 2018-08-24 08:45:45.000000 659 1
73 DWSIM about flowsheet submission 2018-07-29 12:56:35.000000 842 1
74 DWSIM about a scrubber design 2018-07-22 15:53:53.000000 962 1
75 DWSIM Pipe unit operation 2018-07-14 14:42:47.000000 777 1
76 DWSIM About internship's forms 2018-07-05 10:00:45.000000 738 1
77 DWSIM Simulating a condensor 2018-06-24 04:42:34.000000 788 1
78 DWSIM Python Documentation For DWSIM 2018-06-21 06:57:47.000000 989 1
79 DWSIM Bubble Column Reactor Substitute 2018-06-20 05:45:42.000000 763 1
80 DWSIM Compound not available 2018-06-01 17:08:01.000000 772 1
81 DWSIM help about vinyl chloride 2018-05-28 18:01:35.000000 652 1
82 DWSIM Crude Desalter Simulator 2018-05-27 06:17:30.000000 727 1
83 DWSIM separator column in compound separater 2018-05-26 18:24:56.000000 654 1
84 DWSIM fixing the output data for a given problem 2018-05-26 17:18:25.000000 618 1
85 DWSIM Conversion reactor 2018-05-21 20:31:08.000000 748 4
86 DWSIM UNIQUAC package with default flash doesnot converge. 2018-05-17 18:37:34.000000 736 3
87 DWSIM Brine evaporation in DWSIM 2018-04-21 04:54:02.000000 725 1
88 DWSIM Regarding adding compuonds in DWSIM 2018-04-04 11:45:22.000000 1482 1
89 DWSIM About unit operations in DWSIM 2018-04-03 12:00:22.000000 809 1
90 DWSIM CATALYST is not present 2018-03-21 18:44:11.000000 832 2
91 DWSIM Dehydration Plant Simulation 2018-02-27 14:03:49.000000 679 2
92 DWSIM Dehydration Plant 2018-02-19 15:29:52.000000 773 1
93 DWSIM Proble with opening DWSIM file into software 2018-02-02 07:11:26.000000 931 1
94 DWSIM Kinetic reaction 2018-01-21 05:17:44.000000 779 1
95 DWSIM Rigorous Distillation 2018-01-12 06:01:32.000000 1011 1
96 DWSIM PFR step size error 2018-01-11 10:26:39.000000 763 1
97 DWSIM Displaying reaction results 2017-12-31 08:31:37.000000 722 1
98 DWSIM can you suggest me the solution for the error I'm getting while designing methanol synthesis process ? 2017-12-22 12:22:28.000000 828 1
99 DWSIM DWSIM for membrane separation 2017-10-30 17:26:45.000000 1321 1
100 DWSIM Downloading the Tutorials 2017-10-03 13:49:40.000000 922 1
101 DWSIM Issue in DWSIM Software Installation 2017-10-02 05:45:54.000000 977 1
102 DWSIM Three phase open-source library 2017-09-13 14:22:55.000000 844 1
103 DWSIM Three phase library open-source 2017-09-13 14:22:23.000000 887 1
104 DWSIM can we use DWSIM for simulutions for a spray or rotay drier systems 2017-09-07 08:36:51.000000 1035 1
105 DWSIM internship details 2017-08-14 14:13:59.000000 827 1
106 DWSIM Regarding Submission of flow sheet and its deadline. 2017-08-07 15:00:09.000000 863 1
107 DWSIM Assigning operating pressure for distillation column 2017-07-26 18:58:47.000000 988 1
108 DWSIM step size becomes too small error in plug flow reactor 2017-05-14 05:44:09.000000 1057 1
109 DWSIM double clicking not opening main editing window 2017-05-12 02:47:51.000000 883 1
110 DWSIM Multi component Distillation 2017-04-25 12:11:09.000000 1281 1
111 DWSIM Unbalanced equation 2017-03-19 14:23:10.000000 947 2
112 DWSIM DWSIM components 2017-03-08 14:13:14.000000 1155 2
113 DWSIM RECYCLE STREAM 2017-01-10 04:40:53.000000 1667 1
114 DWSIM SIMULATION inquiry 2016-12-29 06:53:02.000000 968 2
115 DWSIM HEAT EXCHANGER 2016-12-04 05:57:37.000000 1247 1
116 DWSIM OPEN SOURCE APPLICATION 2016-12-03 04:08:30.000000 1020 5
117 DWSIM FLASH DRUM SEPARATOR 2016-12-03 02:40:31.000000 1099 1
118 DWSIM New Compound Creator Study 2016-05-26 11:56:10.000000 2351 1
119 DWSIM How to install and run DWSIM on MAC AIR? 2016-04-25 10:40:30.000000 1578 2
120 DWSIM Creating component hypothetically 2016-04-22 09:22:23.000000 3411 2
121 DWSIM Equilibrium reactor simulation 2016-02-26 15:40:26.000000 4488 2
122 DWSIM Textbook companion project 2016-02-10 13:38:57.000000 1312 2
123 DWSIM Conversion of Reaction 2016-01-04 14:31:49.000000 1691 1
124 DWSIM Unavailability of compounds in Database 2015-12-24 14:14:49.000000 2026 2
125 DWSIM TEXTBOOK COMPANION INTERNSHIP 2015-12-23 17:35:03.000000 1336 1
126 DWSIM Transient simulations and Stream wise report 2015-10-21 07:04:10.000000 1647 1